THOR ABLESTAR DEB, 324

Orbit data source: Space-Track

THOR ABLESTAR DEB, 324 is space debris in LEO originally from a launch on Thu, 29 Jun 1961 UTC launched from the Air Force Eastern Test Range (AFETR). Debris objects in space refer to the collection of defunct objects orbiting the Earth. Examples of debris include non-operational satellites, rocket bodies, and fragments generated from explosions, collisions, or faulty payload assembly.

Loading next visibility...
THOR ABLESTAR DEB details
Identifier
324, 1961-015DA
Orbit
LEO
Last TLE update2 days ago
Origin
Flag of USUSAF SSD (US)
ManufacturerUnknown
MissionSpacecraft
Bus & MotorUnknown
MassUnknown
Launch date (UTC)
1961-06-29 (64 years ago)
Launch vehicleUnknown
Launch site
Air Force Eastern Test Range (AFETR)
Object type
Payload
Rocket body
Debris
Shape & HBRUnknown
Radar Cross SectionSmall (<0.1 m²)

Expand to show TLE details & history

TLE from 2 days ago
0 THOR ABLESTAR DEB
1 00324U 61015DA  25022.03151584  .00000734  00000-0  43159-3 0  9999
2 00324  66.8642 242.6261 0063822  41.4749 319.1160 14.12560855250854
Epoch: 2025-01-22T00:45Z
Definitive object data (Epoch: 2025-01-22T00:45:22.968Z)
Latitude0.00004°
Longitude109.65119°
Altitude817.967 km
Speed7.462 km/s
True Right ascension16h 10m 30s
True Declination0° 00' 00"
Sunlit
Object was in daylight at TLE epoch
Visualization TLE readout
Latitude0.60629°
Longitude-74.80529°
Altitude887.327 km
Speed7.391 km/s
Apparent Right ascension04h 41m 03s
Apparent Declination-18° 45' 38"
Sunlit
Object is in daylight
Visualization observer readout
Local Sidereal Time17:53:27
Azimuth41.646° NE
Elevation-63.722°
Doppler factor1
Orbital elements
Apogee altitude895.116 km
Perigee altitude802.866 km
Semi-major axis7,227.128 km
Eccentricity0.0063822
Inclination66.8642°
RAAN242.6261°
Arg. of periapsis41.4749°
True anomaly318.63441°
Mean anomaly319.116°
Eccentric anomaly318.8755°
Mean motion3.5326 °/min
BSTAR0.00043159
Orbital period101.91 mins
Loading maneuver chart data...

THOR ABLESTAR DEB Visibility forecast

Observer location: undefined°, undefined

Span
Click to sort rows by Start time (UTC) header in descending order
Start Az.
Max El. time (UTC)
Max El. Az.
Max El.
End time (UTC)
End Az.
5 mins2025-01-23 17:45:51.417Z289.202° WNW2025-01-23 17:47:51.417Z313.434° NW15.566°2025-01-23 17:50:51.417Z349.558° N
9 mins2025-01-24 00:53:51.417Z338.54° N2025-01-24 00:57:51.417Z58.63° ENE43.262°2025-01-24 01:02:51.417Z142.459° SSE
5 mins2025-01-24 02:39:51.417Z281.038° WNW2025-01-24 02:41:51.417Z257.524° W15.861°2025-01-24 02:44:51.417Z223.59° SW
9 mins2025-01-24 15:45:51.417Z206.623° SW2025-01-24 15:49:51.417Z197.197° SSW44.714°2025-01-24 15:54:51.417Z29.303° NE
|